IW8PDD-3 Weather Reports


time (UTC)temp
C
wind
direction
speed
KPH
gust
KPH
rain 1hr
cm
rain 24hr
cm
rain mn
cm
humidity
%
barometer
mb
20260507155451 24 0.0 0.0 0.00 0.00 0.00 47 1008.4
20260507153447 23 0.0 0.0 0.00 0.00 0.00 47 1008.6
20260507151442 26 0.0 0.0 0.00 0.00 0.00 45 1008.4
20260507145438 26 0.0 0.0 0.00 0.00 0.00 45 1008.7
20260507141421 25 0.0 0.0 0.00 0.00 0.00 45 1009.5
20260507135416 25 0.0 0.0 0.00 0.00 0.00 44 1009.7
20260507133412 26 0.0 0.0 0.00 0.00 0.00 43 1010.2
20260507131407 27 0.0 0.0 0.00 0.00 0.00 41 1010.3
20260507125403 27 0.0 0.0 0.00 0.00 0.00 41 1010.3
20260507123400 27 0.0 0.0 0.00 0.00 0.00 40 1010.2
20260507121357 27 0.0 0.0 0.00 0.00 0.00 40 1010.5
20260507115353 28 0.0 0.0 0.00 0.00 0.00 39 1010.7
20260507113350 28 0.0 0.0 0.00 0.00 0.00 39 1010.6
20260507111346 28 0.0 0.0 0.00 0.00 0.00 39 1010.6
20260507105343 27 0.0 0.0 0.00 0.00 0.00 40 1010.5
20260507103339 26 0.0 0.0 0.00 0.00 0.00 42 1010.8
20260507102630 26 0.0 0.0 0.00 0.00 0.00 43 1010.8
20260507100626 26 0.0 0.0 0.00 0.00 0.00 44 1010.8
20260507094622 26 0.0 0.0 0.00 0.00 0.00 46 1010.8
20260507092618 25 0.0 0.0 0.00 0.00 0.00 50 1011.1
20260507090614 22 0.0 0.0 0.00 0.00 0.00 57 1011.3
20260507084610 21 0.0 0.0 0.00 0.00 0.00 58 1011.7
20260507082606 21 0.0 0.0 0.00 0.00 0.00 59 1012.0
20260507080602 20 0.0 0.0 0.00 0.00 0.00 60 1012.5
20260507072554 20 0.0 0.0 0.00 0.00 0.00 63 1013.2
20260507070550 20 0.0 0.0 0.00 0.00 0.00 64 1013.2
20260507064546 20 0.0 0.0 0.00 0.00 0.00 65 1013.8
20260507062542 20 0.0 0.0 0.00 0.00 0.00 66 1014.0
20260507060538 19 0.0 0.0 0.00 0.00 0.00 67 1014.1
20260507054534 18 0.0 0.0 0.00 0.00 0.00 68 1013.8
20260507052530 18 0.0 0.0 0.00 0.00 0.00 68 1014.0
20260507050526 17 0.0 0.0 0.00 0.00 0.00 69 1013.9
20260507044522 18 0.0 0.0 0.00 0.00 0.00 69 1014.3
20260507040514 17 0.0 0.0 0.00 0.00 0.00 68 1014.3
20260507034510 17 0.0 0.0 0.00 0.00 0.00 68 1014.3
20260507032506 17 0.0 0.0 0.00 0.00 0.00 68 1014.1
20260507024459 18 0.0 0.0 0.00 0.00 0.00 68 1013.9
20260507022455 17 0.0 0.0 0.00 0.00 0.00 69 1014.2
20260507020451 17 0.0 0.0 0.00 0.00 0.00 67 1014.1
20260507014447 18 0.0 0.0 0.00 0.00 0.00 66 1014.1
20260507012443 18 0.0 0.0 0.00 0.00 0.00 67 1014.4
20260507010439 18 0.0 0.0 0.00 0.00 0.00 67 1014.5
20260507004435 18 0.0 0.0 0.00 0.00 0.00 65 1014.4
20260507000427 18 0.0 0.0 0.00 0.00 0.00 62 1014.4
20260506234423 18 0.0 0.0 0.00 0.00 0.00 63 1014.5
20260506232419 18 0.0 0.0 0.00 0.00 0.00 64 1014.4
20260506230415 18 0.0 0.0 0.00 0.00 0.00 65 1014.3
20260506224411 18 0.0 0.0 0.00 0.00 0.00 66 1014.1
20260506222407 18 0.0 0.0 0.00 0.00 0.00 67 1014.1
20260506220404 18 0.0 0.0 0.00 0.00 0.00 67 1014.2
20260506214400 18 0.0 0.0 0.00 0.00 0.00 66 1014.4
20260506212357 18 0.0 0.0 0.00 0.00 0.00 65 1013.7
20260506210353 18 0.0 0.0 0.00 0.00 0.00 65 1013.8
20260506204350 18 0.0 0.0 0.00 0.00 0.00 65 1014.1
20260506202346 18 0.0 0.0 0.00 0.00 0.00 66 1014.8
20260506200343 18 0.0 0.0 0.00 0.00 0.00 66 1015.4
20260506194340 18 0.0 0.0 0.00 0.00 0.00 66 1015.3
20260506192336 18 0.0 0.0 0.00 0.00 0.00 66 1015.2
20260506190332 18 0.0 0.0 0.00 0.00 0.00 66 1015.4
20260506184328 18 0.0 0.0 0.00 0.00 0.00 66 1015.2
20260506182324 18 0.0 0.0 0.00 0.00 0.00 66 1015.2
20260506180320 18 0.0 0.0 0.00 0.00 0.00 65 1014.9
20260506174316 19 0.0 0.0 0.00 0.00 0.00 65 1014.5
20260506172312 19 0.0 0.0 0.00 0.00 0.00 65 1014.6
20260506170308 19 0.0 0.0 0.00 0.00 0.00 64 1014.7
20260506164304 19 0.0 0.0 0.00 0.00 0.00 64 1014.9
20260506162300 20 0.0 0.0 0.00 0.00 0.00 62 1015.0
20260506160256 20 0.0 0.0 0.00 0.00 0.00 63 1015.1